| Date | Temp | Humidity | Rainfall | Dew Point | Wind Direction | Wind Speed | Wind Pressure | Condition | Visibility |
|---|---|---|---|---|---|---|---|---|---|
| 2025-03-08 02:03:15 | 24 | 97 | 24 | 240 | 15.2 | 1010 | Rain | 06KM | |
| 2025-03-08 01:00:23 | 24 | 98 | 24 | 240 | 9.5 | 1011 | Rain | 06KM | |
| 2025-03-08 00:02:39 | 25 | 98 | 24 | 250 | 7.6 | 1011 | Rain | 06KM | |
| 2025-03-07 22:59:17 | 25 | 97 | 24 | 180 | 11.4 | 1011 | Rain | 09KM | |
| 2025-03-07 22:03:41 | 25 | 98 | 25 | 190 | 11.4 | 1011 | Rain | 07KM | |
| 2025-03-07 21:04:42 | 25 | 98 | 25 | 230 | 13.3 | 1010 | Rain | 5KM | |
| 2025-03-07 20:05:27 | 26 | 90 | 25 | 200 | 17.1 | 1009 | Rain | 8 KM | |
| 2025-03-07 19:03:55 | 27 | 87 | 25 | 250 | 11.4 | 1008 | Rain | 10 KM | |
| 2025-03-07 18:02:41 | 27 | 87 | 24 | 240 | 15.2 | 1008 | Thundershowers | 10 KM | |
| 2025-03-07 17:00:44 | 28 | 85 | 25 | 280 | 19.0 | 1007 | Thunderstorm | 10 KM | |
| 2025-03-07 16:00:48 | 28 | 82 | 25 | 280 | 22.8 | 1007 | Distant showers | 10 KM | |
| 2025-03-07 15:01:05 | 28 | 83 | 25 | 290 | 19.0 | 1007 | Heavy Showers | 10 KM | |
| 2025-03-07 14:00:34 | 28 | 88 | 25 | 310 | 17.1 | 1008 | Thundershowers | 8 | |
| 2025-03-07 13:02:56 | 30 | 78 | 25 | 270 | 20.9 | 1008 | Distant showers | 15 KM | |
| 2025-03-07 11:59:28 | 30 | 76 | 0 | 25 | 310 | 15.2 | 1009 | Cloudy | 20 KM |
| 2025-03-07 11:00:29 | 30 | 72 | 0 | 24 | 230 | 9.5 | 1010 | Cloudy | 20 KM |
| 2025-03-07 10:06:46 | 29 | 77 | 0.00 | 24 | 200 | 13.3 | 1010 | Cloudy | 20 KM |
| 2025-03-07 09:00:22 | 27 | 86 | 0.00 | 24 | 210 | 11.4 | 1010 | Cloudy | 20 KM |
| 2025-03-07 08:05:46 | 26 | 91 | 24 | 210 | 7.6 | 1010 | Partly Cloudy (Day) | 15 KM | |
| 2025-03-07 06:58:26 | 25 | 93 | 24 | 220 | 5.7 | 1009 | Distant showers | 15 KM | |
| 2025-03-07 05:58:51 | 25 | 94 | 24 | 270 | 3.8 | 1008 | Partly Cloudy (Day) | 10 KM | |
| 2025-03-07 05:01:53 | 25 | 93 | 24 | 210 | 5.7 | 1008 | Partly Cloudy (Day) | 10 KM | |
| 2025-03-07 04:01:15 | 26 | 94 | 25 | 190 | 7.6 | 1008 | Rain | 10 KM | |
| 2025-03-07 02:59:46 | 26 | 95 | 25 | 210 | 7.6 | 1008 | Rain | 10 KM | |
| 2025-03-07 02:01:05 | 26 | 95 | 25 | 190 | 7.6 | 1009 | Rain | 10 km |